FW0538 Weather Reports


Display with metric or nautical units.
time (UTC)temp
F
wind
direction
speed
MPH
gust
MPH
rain 1hr
in
rain 24hr
in
rain mn
in
humidity
%
barometer
mb
20260505181514 54 314 0.0 6.0 0.00 0.30 0.00 72 1012.4
20260505180011 53 46 3.0 7.0 0.00 0.30 0.00 72 1012.2
20260505174513 53 43 2.0 6.0 0.00 0.30 0.00 74 1012.1
20260505173011 52 23 3.0 9.0 0.00 0.30 0.00 73 1011.9
20260505171504 52 331 4.0 10.0 0.00 0.30 0.00 75 1011.8
20260505170004 52 6 4.0 10.0 0.00 0.30 0.00 76 1011.8
20260505164501 51 330 2.0 7.0 0.00 0.31 0.00 79 1011.7
20260505163059 50 314 2.0 8.0 0.00 0.31 0.00 83 1011.6
20260505161610 49 356 0.0 6.0 0.00 0.31 0.00 82 1011.7
20260505153047 47 347 4.0 7.0 0.00 0.31 0.00 86 1011.3
20260505151543 46 307 1.0 5.0 0.00 0.31 0.00 87 1011.1
20260505124532 43 333 1.0 8.0 0.00 0.31 0.00 88 1009.7
20260505123025 43 347 3.0 9.0 0.00 0.31 0.00 89 1009.5
20260505121524 43 335 4.0 8.0 0.00 0.31 0.00 90 1009.6
20260505120028 43 337 2.0 6.0 0.00 0.31 0.00 90 1009.6
20260505114523 42 344 2.0 6.0 0.00 0.31 0.00 90 1009.4
20260505113024 43 24 3.0 8.0 0.00 0.31 0.00 89 1009.4
20260505111521 43 323 3.0 9.0 0.00 0.31 0.00 89 1009.4
20260505101529 43 313 5.0 8.0 0.00 0.31 0.00 89 1009.7
20260505100114 42 330 0.0 0.0 0.00 0.31 0.00 90 1009.8
20260505094513 41 330 0.0 2.0 0.00 0.31 0.00 90 1009.9
20260505093022 41 335 4.0 6.0 0.00 0.31 0.00 90 1009.8
20260505091511 41 356 1.0 5.0 0.00 0.31 0.00 90 1009.8
20260505090011 42 354 1.0 7.0 0.00 0.31 0.00 89 1009.9
20260505084509 42 30 2.0 9.0 0.00 0.31 0.00 90 1009.8
20260505083011 42 333 7.0 13.0 0.00 0.31 0.00 90 1009.9
20260505081508 42 330 7.0 11.0 0.00 0.31 0.00 92 1010.1
20260505080001 42 293 4.0 9.0 0.00 0.31 0.00 94 1010.3
20260505074501 42 316 0.0 5.0 0.00 0.31 0.00 94 1010.2
20260505073100 42 262 3.0 5.0 0.00 0.31 0.00 94 1010.2
20260505071605 42 314 3.0 7.0 0.00 0.31 0.00 94 1010.4
20260505070056 42 262 3.0 9.0 0.00 0.31 0.00 94 1010.1
20260505064553 42 325 6.0 10.0 0.00 0.31 0.31 94 1009.9
20260505063119 42 318 2.0 7.0 0.00 0.31 0.31 94 1009.4
20260505061618 42 341 2.0 6.0 0.00 0.31 0.31 94 1008.7
20260505060100 42 342 3.0 8.0 0.00 0.31 0.31 94 1009.0
20260505054549 42 314 6.0 17.0 0.00 0.31 0.31 94 1009.1
20260505053046 42 297 9.0 17.0 0.01 0.31 0.31 94 1009.4
20260505051607 43 324 8.0 15.0 0.01 0.31 0.31 94 1009.1
20260505041548 44 39 4.0 10.0 0.02 0.30 0.30 94 1009.0
20260505040041 44 298 6.0 12.0 0.03 0.30 0.30 94 1008.7
20260505034540 44 22 4.0 13.0 0.01 0.28 0.28 94 1009.2
20260505033041 44 22 4.0 9.0 0.03 0.28 0.28 94 1008.6
20260505031540 43 345 3.0 12.0 0.03 0.28 0.28 94 1008.1
20260505030138 44 103 2.0 9.0 0.02 0.27 0.27 94 1008.4
20260505024541 44 193 5.0 7.0 0.03 0.27 0.27 94 1008.3
20260505023036 44 19 7.0 10.0 0.04 0.25 0.25 94 1008.7
20260505021536 43 49 2.0 8.0 0.14 0.25 0.25 93 1008.1
20260505020035 43 348 6.0 9.0 0.17 0.25 0.25 93 1008.1
20260505014532 44 279 9.0 13.0 0.17 0.24 0.24 93 1008.1
20260505013032 45 262 8.0 11.0 0.16 0.20 0.20 93 1008.9
20260505011533 45 147 5.0 12.0 0.07 0.11 0.11 93 1009.7
20260505010030 44 221 13.0 23.0 0.04 0.08 0.08 91 1008.3
20260505004526 45 216 19.0 27.0 0.03 0.07 0.07 88 1007.9
20260505003024 50 229 17.0 25.0 0.00 0.04 0.04 72 1007.5
20260505001523 51 241 19.0 27.0 0.00 0.04 0.04 67 1006.3
20260505000022 54 234 17.0 25.0 0.00 0.04 0.04 63 1006.5
20260504234523 58 252 12.0 21.0 0.00 0.04 0.04 59 1006.4
20260504233021 61 321 6.0 14.0 0.00 0.04 0.04 53 1006.3
20260504231517 59 321 5.0 10.0 0.00 0.04 0.04 58 1006.2
20260504230016 59 288 4.0 13.0 0.00 0.04 0.04 59 1006.6
20260504224515 58 290 7.0 12.0 0.00 0.04 0.04 62 1006.8
20260504223015 56 255 7.0 17.0 0.00 0.04 0.04 66 1007.0
20260504221514 56 229 13.0 18.0 0.00 0.04 0.04 65 1006.7
20260504220013 56 220 15.0 22.0 0.00 0.04 0.04 66 1006.7
20260504214512 58 227 12.0 19.0 0.00 0.04 0.04 69 1006.5
20260504213013 56 214 12.0 22.0 0.01 0.04 0.04 69 1007.0
20260504211509 55 203 14.0 22.0 0.02 0.04 0.04 72 1007.3
20260504210007 54 212 13.0 19.0 0.03 0.04 0.04 70 1007.5
20260504204506 53 172 11.0 15.0 0.03 0.04 0.04 77 1007.6
20260504203006 51 211 8.0 13.0 0.02 0.03 0.03 81 1008.2
20260504201504 52 224 11.0 16.0 0.01 0.02 0.02 73 1008.3
20260504200004 55 276 1.0 11.0 0.00 0.01 0.01 67 1007.8
20260504194505 57 304 6.0 9.0 0.00 0.01 0.01 59 1007.8
20260504193010 57 246 5.0 10.0 0.00 0.01 0.01 58 1007.9
20260504191506 57 307 7.0 14.0 0.00 0.01 0.01 56 1008.3
20260504190000 59 297 7.0 13.0 0.00 0.01 0.01 53 1008.2
20260504184557 58 314 5.0 21.0 0.00 0.01 0.01 54 1008.3
20260504183055 57 330 4.0 10.0 0.00 0.01 0.01 57 1008.6